{"data":{"norad_id":67392,"intl_designator":"2026-004AF","name":"HAWK-13A","alt_names":[],"object_type":"PAYLOAD","status":"ACTIVE","operator":null,"country":"US","launch_date":"2026-01-11","launch_site_code":"AFWTR","launch_vehicle":null,"mission":null,"orbit_class":"UNKNOWN","rcs_meters":null,"size_class":null,"mass_kg":null,"dimensions":null,"purposes":[],"wikipedia_slug":null,"has_3d_model":false,"image_url":null,"decayed_at":null,"tle_current":{"epoch":"2026-05-24T22:35:33.789120Z","epoch_age_seconds":84088,"freshness":"FRESH","line1":"1 67392U 26004AF  26144.94136330  .00004268  00000+0  20763-3 0  9995","line2":"2 67392  97.4440 144.1523 0007204  63.1526 297.0445 15.18915038 20232","mean_motion":15.18915038,"eccentricity":0.0007204,"inclination_deg":97.444,"raan_deg":144.1523,"arg_perigee_deg":63.1526,"mean_anomaly_deg":297.0445,"bstar":0.00020763,"rev_number":2023,"period_min":94.804512693224,"perigee_km":504.1567979539,"apogee_km":514.07995550069,"semimajor_km":6887.2553767273,"source":"CELESTRAK","updated_at":"2026-05-25T13:38:06.958729Z"}}}